timestamp,surface_pressure_avg,surface_temp_avg,battery_voltage,lat,long
2023-12-21 00:09:00+00:00,218.0331,5.2,11.46,47.84626,-54.09684
2023-12-21 00:19:00+00:00,221.0864,5.2,11.46,47.84626,-54.09684
2023-12-21 00:29:00+00:00,226.3881,5.2,11.46,47.84626,-54.09684
2023-12-21 00:39:00+00:00,227.4514,5.23,11.46,47.84626,-54.09684
2023-12-21 00:49:00+00:00,225.9898,5.28,11.46,47.84626,-54.09684
2023-12-21 00:59:00+00:00,227.3414,5.3,11.46,47.84626,-54.09684
2023-12-21 01:09:00+00:00,228.6781,5.3,11.46,47.84626,-54.09684
2023-12-21 01:19:00+00:00,226.0081,5.3,11.46,47.84626,-54.09684
2023-12-21 01:29:00+00:00,223.4414,5.33,11.46,47.84626,-54.09684
2023-12-21 01:39:00+00:00,227.6664,5.3,11.46,47.84626,-54.09684
2023-12-21 01:49:00+00:00,229.8831,5.3,11.46,47.84626,-54.09684
2023-12-21 01:59:00+00:00,228.4631,5.3,11.46,47.84626,-54.09684
2023-12-21 02:09:00+00:00,230.9147,5.3,11.46,47.84626,-54.09684
2023-12-21 02:19:00+00:00,237.0415,5.3,11.46,47.84626,-54.09684
2023-12-21 02:29:00+00:00,237.7481,5.3,11.46,47.84626,-54.09684
2023-12-21 02:39:00+00:00,239.9015,5.26,11.46,47.84626,-54.09684
2023-12-21 02:49:00+00:00,245.3547,5.27,11.46,47.84626,-54.09684
2023-12-21 02:59:00+00:00,250.32299999999998,5.26,11.46,47.84626,-54.09684
2023-12-21 03:09:00+00:00,248.9664,5.25,11.46,47.84626,-54.09684
2023-12-21 03:19:00+00:00,251.0281,5.22,11.46,47.84626,-54.09684
2023-12-21 03:29:00+00:00,258.6614,5.25,11.46,47.84626,-54.09684
2023-12-21 03:39:00+00:00,266.4881,5.21,11.46,47.84626,-54.09684
2023-12-21 03:49:00+00:00,271.9064,5.2,11.46,47.84626,-54.09684
2023-12-21 03:59:00+00:00,278.2713,5.2,11.46,47.84626,-54.09684
2023-12-21 04:09:00+00:00,283.563,5.2,11.46,47.84626,-54.09684
2023-12-21 04:19:01+00:00,290.283,5.2,11.46,47.84626,-54.09684
2023-12-21 04:29:01+00:00,294.018,5.2,11.46,47.84626,-54.09684
2023-12-21 04:39:01+00:00,298.4264,5.2,11.46,47.84626,-54.09684
2023-12-21 04:49:01+00:00,307.0814,5.2,11.46,47.84626,-54.09684
2023-12-21 04:59:01+00:00,312.2097,5.2,11.46,47.84626,-54.09684
2023-12-21 05:09:01+00:00,312.0014,5.2,11.46,47.84626,-54.09684
2023-12-21 05:19:00+00:00,317.1613,5.2,11.46,47.84626,-54.09684
2023-12-21 05:29:00+00:00,326.5046,5.2,11.46,47.84626,-54.09684
2023-12-21 05:39:00+00:00,329.8697,5.2,11.46,47.84626,-54.09684
2023-12-21 05:49:00+00:00,330.0397,5.2,11.46,47.84626,-54.09684
2023-12-21 05:59:00+00:00,336.3346,5.2,11.46,47.84626,-54.09684
2023-12-21 06:09:00+00:00,342.1312,5.2,11.46,47.84626,-54.09684
2023-12-21 06:19:00+00:00,341.1579,5.2,11.46,47.84626,-54.09684
2023-12-21 06:29:00+00:00,340.1613,5.2,11.46,47.84626,-54.09684
2023-12-21 06:39:00+00:00,347.2246,5.2,11.46,47.84626,-54.09684
2023-12-21 06:49:00+00:00,348.6646,5.2,11.46,47.84626,-54.09684
2023-12-21 06:59:00+00:00,344.4113,5.2,11.46,47.84626,-54.09684
2023-12-21 07:09:00+00:00,344.3529,5.2,11.46,47.84626,-54.09684
2023-12-21 07:19:01+00:00,346.81300000000016,5.2,11.46,47.84626,-54.09684
2023-12-21 07:29:01+00:00,346.2096,5.19,11.46,47.84626,-54.09684
2023-12-21 07:39:01+00:00,340.7513,5.18,11.46,47.84626,-54.09684
2023-12-21 07:49:01+00:00,337.67800000000005,5.17,11.46,47.84626,-54.09684
2023-12-21 07:59:01+00:00,332.7529,5.19,11.46,47.84626,-54.09684
2023-12-21 08:09:01+00:00,326.0179,5.2,11.46,47.84626,-54.09684
2023-12-21 08:19:00+00:00,320.2596,5.2,11.46,47.84626,-54.09684
2023-12-21 08:29:00+00:00,314.6113,5.2,11.46,47.84626,-54.09684
2023-12-21 08:39:00+00:00,308.7313,5.2,11.46,47.84626,-54.09684
2023-12-21 08:49:00+00:00,300.328,5.2,11.46,47.84626,-54.09684
2023-12-21 08:59:00+00:00,294.9863,5.2,11.46,47.84626,-54.09684
2023-12-21 09:09:00+00:00,289.363,5.2,11.46,47.84626,-54.09684
2023-12-21 09:19:00+00:00,280.2548,5.2,11.46,47.84626,-54.09684
2023-12-21 09:29:00+00:00,270.0864,5.2,11.46,47.84626,-54.09684
2023-12-21 09:39:00+00:00,266.5231,5.2,11.46,47.84626,-54.09684
2023-12-21 09:49:00+00:00,262.7031,5.2,11.46,47.84626,-54.09684
2023-12-21 09:59:00+00:00,254.7298,5.24,11.46,47.84626,-54.09684
2023-12-21 10:09:00+00:00,247.1931,5.26,11.46,47.84626,-54.09684
2023-12-21 10:19:00+00:00,246.5181,5.27,11.46,47.84626,-54.09684
2023-12-21 10:29:00+00:00,244.4098,5.28,11.46,47.84626,-54.09684
2023-12-21 10:39:00+00:00,238.5797,5.28,11.46,47.84626,-54.09684
2023-12-21 10:49:00+00:00,234.9065,5.28,11.46,47.84626,-54.09684
2023-12-21 10:59:00+00:00,234.8098,5.29,11.46,47.84626,-54.09684
2023-12-21 11:09:00+00:00,233.5714,5.29,11.46,47.84626,-54.09684
2023-12-21 11:19:00+00:00,229.3398,5.28,11.46,47.84626,-54.09684
2023-12-21 11:29:00+00:00,224.9747,5.28,11.46,47.84626,-54.09684
2023-12-21 11:39:00+00:00,225.5497,5.28,11.46,47.84626,-54.09684
2023-12-21 11:49:00+00:00,223.8615,5.27,11.46,47.84626,-54.09684
2023-12-21 11:59:00+00:00,217.5048,5.25,11.46,47.84626,-54.09684
2023-12-21 12:09:00+00:00,214.9114,5.24,11.46,47.84626,-54.09684
2023-12-21 12:19:00+00:00,218.3215,5.25,11.46,47.84626,-54.09684
2023-12-21 12:29:00+00:00,218.1331,5.25,11.46,47.84626,-54.09684
2023-12-21 12:39:00+00:00,213.8948,5.22,11.46,47.84626,-54.09684
2023-12-21 12:49:00+00:00,215.1298,5.22,11.46,47.84626,-54.09684
2023-12-21 12:59:00+00:00,216.0948,5.23,11.46,47.84626,-54.09684
2023-12-21 13:09:00+00:00,215.6398,5.24,11.46,47.84626,-54.09684
2023-12-21 13:19:00+00:00,219.4914,5.26,11.46,47.84626,-54.09684
2023-12-21 13:29:00+00:00,224.4714,5.27,11.46,47.84626,-54.09684
2023-12-21 13:39:00+00:00,225.3564,5.28,11.46,47.84626,-54.09684
2023-12-21 13:49:00+00:00,226.6065,5.29,11.46,47.84626,-54.09684
2023-12-21 13:59:00+00:00,231.1464,5.3,11.46,47.84626,-54.09684
2023-12-21 14:09:00+00:00,234.4798,5.3,11.46,47.84626,-54.09684
2023-12-21 14:19:00+00:00,236.3898,5.3,11.46,47.84626,-54.09684
2023-12-21 14:29:00+00:00,237.0515,5.29,11.46,47.84626,-54.09684
2023-12-21 14:39:00+00:00,242.6714,5.29,11.46,47.84626,-54.09684
2023-12-21 14:49:00+00:00,246.1964,5.49,11.46,47.84626,-54.09684
2023-12-21 14:59:00+00:00,249.1847,5.68,11.46,47.84626,-54.09684
2023-12-21 15:09:00+00:00,250.7548,5.8,11.46,47.84626,-54.09684
2023-12-21 15:19:01+00:00,254.6981,5.79,11.46,47.84626,-54.09684
2023-12-21 15:29:01+00:00,259.6764,5.7,11.46,47.84626,-54.09684
2023-12-21 15:39:01+00:00,265.4014,5.7,11.46,47.84626,-54.09684
2023-12-21 15:49:01+00:00,268.2431,5.65,11.46,47.84626,-54.09684
2023-12-21 15:59:01+00:00,274.0797,5.6,11.46,47.84626,-54.09684
2023-12-21 16:09:01+00:00,281.3147,5.6,11.46,47.84626,-54.09684
2023-12-21 16:19:00+00:00,288.6613,5.62,11.46,47.84626,-54.09684
2023-12-21 16:29:00+00:00,289.2997,5.6,11.46,47.84626,-54.09684
2023-12-21 16:39:00+00:00,294.578,5.5,11.46,47.84626,-54.09684
2023-12-21 16:49:00+00:00,301.483,5.5,11.46,47.84626,-54.09684
2023-12-21 16:59:00+00:00,305.0413,5.5,11.46,47.84626,-54.09684
2023-12-21 17:09:00+00:00,307.6714,5.4,11.46,47.84626,-54.09684
2023-12-21 17:19:00+00:00,313.2363,5.4,11.46,47.84626,-54.09684
2023-12-21 17:29:00+00:00,321.1863,5.4,11.46,47.84626,-54.09684
2023-12-21 17:39:00+00:00,325.1829,5.4,11.46,47.84626,-54.09684
2023-12-21 17:49:00+00:00,328.7563,5.4,11.46,47.84626,-54.09684
2023-12-21 17:59:00+00:00,334.9479,5.4,11.46,47.84626,-54.09684
2023-12-21 18:09:00+00:00,338.1462,5.4,11.46,47.84626,-54.09684
2023-12-21 18:19:00+00:00,339.2596,5.4,11.37,47.84626,-54.09684
2023-12-21 18:29:00+00:00,341.4664,5.4,11.37,47.84626,-54.09684
2023-12-21 18:39:00+00:00,343.418,5.4,11.37,47.84626,-54.09684
2023-12-21 18:49:00+00:00,343.9314,5.4,11.37,47.84626,-54.09684
2023-12-21 18:59:00+00:00,343.088,5.4,11.37,47.84626,-54.09684
2023-12-21 19:09:00+00:00,348.0831,5.4,11.37,47.84626,-54.09684
2023-12-21 19:19:00+00:00,347.8997,5.4,11.37,47.84626,-54.09684
2023-12-21 19:29:00+00:00,347.4313,5.4,11.37,47.84626,-54.09684
2023-12-21 19:39:00+00:00,348.8796,5.4,11.37,47.84626,-54.09684
2023-12-21 19:49:00+00:00,349.0713,5.4,11.37,47.84626,-54.09684
2023-12-21 19:59:00+00:00,345.3296,5.4,11.37,47.84626,-54.09684
2023-12-21 20:09:00+00:00,342.2795,5.4,11.37,47.84626,-54.09684
2023-12-21 20:19:00+00:00,341.0497,5.4,11.37,47.84626,-54.09684
2023-12-21 20:29:00+00:00,337.2480000000001,5.4,11.37,47.84626,-54.09684
2023-12-21 20:39:00+00:00,330.5030000000001,5.4,11.37,47.84626,-54.09684
2023-12-21 20:49:00+00:00,325.488,5.4,11.37,47.84626,-54.09684
2023-12-21 20:59:00+00:00,322.983,5.4,11.37,47.84626,-54.09684
2023-12-21 21:09:00+00:00,319.1096,5.4,11.37,47.84626,-54.09684
2023-12-21 21:19:00+00:00,314.773,5.47,11.37,47.84626,-54.09684
2023-12-21 21:29:00+00:00,312.2347,5.49,11.37,47.84626,-54.09684
2023-12-21 21:39:00+00:00,308.6813,5.49,11.37,47.84626,-54.09684
2023-12-21 21:49:00+00:00,301.5413,5.48,11.37,47.84626,-54.09684
2023-12-21 21:59:00+00:00,294.7847,5.49,11.37,47.84626,-54.09684
2023-12-21 22:09:00+00:00,289.1664,5.48,11.37,47.84626,-54.09684
2023-12-21 22:19:00+00:00,283.4464,5.47,11.37,47.84626,-54.09684
2023-12-21 22:29:00+00:00,275.5681,5.49,11.37,47.84626,-54.09684
2023-12-21 22:39:00+00:00,272.0547,5.48,11.37,47.84626,-54.09684
2023-12-21 22:49:00+00:00,266.1448,5.49,11.37,47.84626,-54.09684
2023-12-21 22:59:00+00:00,263.403,5.5,11.37,47.84626,-54.09684
2023-12-21 23:09:00+00:00,261.5631,5.5,11.37,47.84626,-54.09684
2023-12-21 23:19:00+00:00,260.3797,5.51,11.37,47.84626,-54.09684
2023-12-21 23:29:00+00:00,252.9197,5.59,11.37,47.84626,-54.09684
2023-12-21 23:39:00+00:00,246.5314,5.6,11.37,47.84626,-54.09684
2023-12-21 23:49:00+00:00,244.8447,5.6,11.37,47.84626,-54.09684
2023-12-21 23:59:00+00:00,243.9998,5.6,11.37,47.84626,-54.09684
